Hourly Data Report for September 19, 2017

All times are specified in Local Standard Time (LST). Add 1 hour to adjust for Daylight Saving Time where and when it is observed.

ST. STEPHEN
NEW BRUNSWICK

45°12'36.600" N
67°15'10.300" W
26.10 m
8104935
71607
WSS

Download Data

Hourly Data (September 2017)
Hourly Data Report for September 19, 2017
Temp Definition
°C
Dew Point Temp Definition
°C
Rel Hum Definition
%
Wind Dir Definition
10's deg

Wind Spd Definition
km/h
Visibility Definition
km
Stn Press Definition
kPa
Hmdx Definition


Wind Chill Definition


Weather Definition


TIME
00:00 14.6 14.1 97 12 2   102.10     LegendNANA
01:00 14.8 14.3 97 0 1   102.10     LegendNANA
02:00 14.9 14.4 97   0   102.04     LegendNANA
03:00 14.9 14.3 97 6 1   102.02     LegendNANA
04:00 15.0 14.5 97   0   102.00     LegendNANA
05:00 15.1 14.7 97   0   102.00     LegendNANA
06:00 15.2 14.7 97   0   102.01     LegendNANA
07:00 15.5 15.0 97   0   102.01     LegendNANA
08:00 16.3 15.8 97 8 3   102.01     LegendNANA
09:00 17.1 16.6 97 6 5   102.03     LegendNANA
10:00 18.0 17.2 95 12 5   102.04     LegendNANA
11:00 19.0 17.3 90 10 8   102.01     LegendNANA
12:00 19.2 17.0 87 11 5   101.99     LegendNANA
13:00 20.3 17.2 83 11 7   101.91 26   LegendNANA
14:00 19.9 17.0 84 12 9   101.84     LegendNANA
15:00 19.9 17.2 84 12 6   101.79     LegendNANA
16:00 19.6 17.1 85 10 4   101.77     LegendNANA
17:00 19.4 17.0 86 11 4   101.74     LegendNANA
18:00 19.0 17.1 89 11 3   101.74     LegendNANA
19:00 18.4 17.1 92 3 3   101.71     LegendNANA
20:00 17.9 16.8 93 12 4   101.72     LegendNANA
21:00 17.5 16.7 95   0   101.70     LegendNANA
22:00 17.3 16.6 96   0   101.68     LegendNANA
23:00 17.0 16.3 96   0   101.63     LegendNANA

Notes on Data Quality.

Legend

  • E = Estimated
  • M = Missing
  • NA = Not Available
  • ‡ = Partner data that is not subject to review by the National Climate Archives
Date modified: